Location: Unspecified
(33.6682°S, 0.0000°E)
Time: 18:26:33
(UTC+00:00)

A-11 Canister half - Visible Passes

Search period start: 07 August 2020 00:00
Search period end: 17 August 2020 00:00
Orbit: 1513 x 1687 km, 47.2° (Epoch: 06 August)

Date Brightness Start Highest point End Pass type
(mag) Time Alt. Az. Time Alt. Az. Time Alt. Az.
07 Aug 11.3 03:05:39 10° NE 03:08:49 12° ENE 03:11:55 10° ENE visible
07 Aug 9.6 05:02:51 10° NNW 05:12:27 57° NE 05:21:45 10° ESE visible
08 Aug 11.3 02:44:33 10° NE 02:45:58 10° ENE 02:47:22 10° ENE visible
08 Aug 9.7 04:40:01 10° NNW 04:49:33 53° NE 04:58:47 10° ESE visible
09 Aug 9.7 04:18:17 14° NNW 04:26:40 50° NE 04:35:49 10° ESE visible
10 Aug 9.8 03:58:02 24° N 04:03:46 46° NE 04:12:51 10° ESE visible
10 Aug 9.1 05:58:46 10° WNW 06:08:35 64° SSW 06:18:04 10° SE visible
11 Aug 9.8 03:37:29 34° N 03:40:53 43° NE 03:49:51 10° ESE visible
11 Aug 9.1 05:35:46 10° WNW 05:45:37 67° SSW 05:55:10 10° SE visible
12 Aug 9.9 03:16:42 39° NNE 03:18:00 40° NE 03:26:51 10° ESE visible
12 Aug 9.0 05:14:57 19° WNW 05:22:38 70° SSW 05:32:15 10° SE visible
13 Aug 10.0 02:55:43 37° ENE 02:55:43 37° ENE 03:03:48 10° ESE visible
13 Aug 9.0 04:53:58 30° WNW 04:59:40 74° SW 05:09:21 10° SE visible
14 Aug 10.3 02:34:35 31° ENE 02:34:35 31° ENE 02:40:47 10° ESE visible
14 Aug 9.0 04:32:50 43° WNW 04:36:43 77° SW 04:46:26 10° SE visible
15 Aug 10.6 02:13:20 25° E 02:13:20 25° E 02:17:43 10° ESE visible
15 Aug 8.9 04:11:34 60° WNW 04:13:45 81° SW 04:23:32 10° SE visible
15 Aug 9.7 06:10:46 10° W 06:19:53 40° SSW 06:28:44 10° SE visible
16 Aug 10.9 01:51:59 18° E 01:51:59 18° E 01:54:37 10° ESE visible
16 Aug 8.9 03:50:12 80° W 03:50:48 85° SW 04:00:36 10° SE visible
16 Aug 9.6 05:48:25 13° W 05:56:51 41° SSW 06:05:46 10° SE visible
